GW0544 Weather Reports


Display with metric or nautical units.
time (UTC)temp
F
wind
direction
speed
MPH
gust
MPH
rain 1hr
in
rain 24hr
in
rain mn
in
humidity
%
barometer
mb
20260507184558 79 257 5.0 11.0 0.00 0.00 0.00 44 1017.2
20260507183055 78 218 6.0 10.0 0.00 0.00 0.00 43 1017.2
20260507181551 77 275 6.0 10.0 0.00 0.00 0.00 44 1017.3
20260507180104 76 254 5.0 9.0 0.00 0.00 0.00 45 1017.5
20260507174617 75 250 4.0 8.0 0.00 0.00 0.00 46 1017.6
20260507173051 76 252 5.0 8.0 0.00 0.00 0.00 41 1017.5
20260507171610 76 251 4.0 8.0 0.00 0.00 0.00 41 1017.6
20260507170059 78 224 4.0 9.0 0.00 0.00 0.00 41 1017.6
20260507164558 77 261 2.0 7.0 0.00 0.00 0.00 35 1017.6
20260507163054 76 0 1.0 4.0 0.00 0.00 0.00 39 1017.7
20260507161558 76 264 0.0 4.0 0.00 0.00 0.00 37 1017.8
20260507160115 73 210 0.0 4.0 0.00 0.00 0.00 42 1017.8
20260507154554 70 0 0.0 1.0 0.00 0.00 0.00 49 1017.9
20260507153051 66 0 0.0 1.0 0.00 0.00 0.00 62 1017.9
20260507151559 61 0 0.0 2.0 0.00 0.00 0.00 74 1018.0
20260507150057 55 0 0.0 2.0 0.00 0.00 0.00 80 1017.9
20260507144556 53 63 0.0 5.0 0.00 0.00 0.00 84 1018.0
20260507143116 51 63 2.0 4.0 0.00 0.00 0.00 88 1017.9
20260507141614 49 0 1.0 2.0 0.00 0.00 0.00 91 1017.9
20260507140111 47 61 0.0 2.0 0.00 0.00 0.00 91 1017.9
20260507134600 44 0 0.0 3.0 0.00 0.00 0.00 91 1017.8
20260507133100 42 61 0.0 4.0 0.00 0.00 0.00 91 1017.7
20260507131619 40 71 2.0 6.0 0.00 0.00 0.00 88 1017.7
20260507130106 40 85 1.0 3.0 0.00 0.00 0.00 89 1017.7
20260507124600 41 85 1.0 2.0 0.00 0.00 0.00 89 1017.6
20260507123058 40 0 0.0 3.0 0.00 0.00 0.00 90 1017.6
20260507121552 39 86 0.0 2.0 0.00 0.00 0.00 88 1017.5
20260507120052 39 86 0.0 2.0 0.00 0.00 0.00 87 1017.6
20260507114551 41 86 2.0 3.0 0.00 0.00 0.00 88 1017.5
20260507113125 41 86 1.0 3.0 0.00 0.00 0.00 89 1017.5
20260507111550 40 0 0.0 2.0 0.00 0.00 0.00 88 1017.5
20260507110054 40 0 0.0 0.0 0.00 0.00 0.00 86 1017.6
20260507104601 41 0 0.0 0.0 0.00 0.00 0.00 87 1017.6
20260507103052 41 0 0.0 3.0 0.00 0.00 0.00 88 1017.6
20260507101553 42 106 1.0 3.0 0.00 0.00 0.00 85 1017.7
20260507100059 43 0 0.0 2.0 0.00 0.00 0.00 87 1017.8
20260507094604 42 113 0.0 4.0 0.00 0.00 0.00 88 1017.9
20260507093052 42 117 1.0 2.0 0.00 0.00 0.00 86 1017.8
20260507091555 42 0 0.0 0.0 0.00 0.00 0.00 85 1018.1
20260507090053 43 0 0.0 0.0 0.00 0.00 0.00 85 1018.2
20260507084557 44 0 0.0 1.0 0.00 0.00 0.00 85 1018.4
20260507083057 45 0 1.0 3.0 0.00 0.00 0.00 88 1018.6
20260507081554 44 0 0.0 2.0 0.00 0.00 0.00 86 1018.8
20260507080056 44 0 0.0 0.0 0.00 0.00 0.00 84 1018.7
20260507074557 45 0 0.0 3.0 0.00 0.00 0.00 84 1018.6
20260507073058 45 0 0.0 3.0 0.00 0.00 0.00 84 1018.8
20260507071556 46 150 1.0 2.0 0.00 0.00 0.00 86 1018.9
20260507070106 45 0 0.0 0.0 0.00 0.00 0.00 84 1018.9
20260507064602 46 0 1.0 4.0 0.00 0.00 0.00 82 1018.9
20260507063108 47 0 0.0 0.0 0.00 0.00 0.00 82 1018.9
20260507061553 48 0 0.0 1.0 0.00 0.00 0.00 82 1019.0
20260507060107 48 0 0.0 0.0 0.00 0.00 0.00 82 1019.0
20260507054600 49 0 0.0 0.0 0.00 0.00 0.00 80 1019.1
20260507053059 50 0 0.0 2.0 0.00 0.00 0.00 80 1019.2
20260507051607 51 0 0.0 1.0 0.00 0.00 0.00 79 1019.3
20260507050109 52 0 0.0 0.0 0.00 0.00 0.00 78 1019.2
20260507044557 53 0 0.0 2.0 0.00 0.00 0.00 76 1019.1
20260507043049 54 221 1.0 3.0 0.00 0.00 0.00 76 1019.1
20260507041552 55 0 0.0 3.0 0.00 0.00 0.00 76 1019.1
20260507040103 56 223 0.0 2.0 0.00 0.00 0.00 75 1018.8
20260507034550 57 223 1.0 2.0 0.00 0.00 0.00 72 1018.7
20260507033053 58 0 0.0 2.0 0.00 0.00 0.00 71 1018.6
20260507031554 59 0 0.0 3.0 0.00 0.00 0.00 70 1018.5
20260507030055 60 225 2.0 4.0 0.00 0.00 0.00 68 1018.2
20260507024551 62 280 1.0 5.0 0.00 0.00 0.00 66 1018.0
20260507023054 64 0 0.0 6.0 0.00 0.00 0.00 64 1018.0
20260507021559 65 279 1.0 9.0 0.00 0.00 0.00 62 1017.7
20260507020052 67 304 4.0 10.0 0.00 0.00 0.00 59 1017.5
20260507014557 68 253 1.0 6.0 0.00 0.00 0.00 58 1017.4
20260507013050 68 360 3.0 12.0 0.00 0.00 0.00 57 1017.3
20260507011556 69 360 3.0 11.0 0.00 0.00 0.00 56 1017.3
20260507010053 69 311 6.0 13.0 0.00 0.00 0.00 55 1017.2
20260507004554 70 10 7.0 13.0 0.00 0.00 0.00 53 1017.0
20260507003055 71 310 5.0 12.0 0.00 0.00 0.00 52 1017.0
20260507001603 72 332 6.0 12.0 0.00 0.00 0.00 51 1016.7
20260507000058 73 339 5.0 12.0 0.00 0.00 0.00 50 1016.7
20260506234615 73 227 5.0 14.0 0.00 0.00 0.00 50 1016.7
20260506233055 73 265 4.0 13.0 0.00 0.00 0.00 51 1016.6
20260506231556 73 296 8.0 16.0 0.00 0.00 0.00 49 1016.7
20260506230058 74 311 7.0 15.0 0.00 0.00 0.00 48 1016.6
20260506224556 74 306 6.0 11.0 0.00 0.00 0.00 46 1016.7
20260506223059 74 31 6.0 13.0 0.00 0.00 0.00 43 1016.7
20260506221551 74 336 6.0 13.0 0.00 0.00 0.00 43 1016.8
20260506220052 74 317 7.0 14.0 0.00 0.00 0.00 42 1016.9
20260506214550 73 285 6.0 14.0 0.00 0.00 0.00 43 1017.0
20260506213054 74 323 6.0 13.0 0.00 0.00 0.00 45 1017.3
20260506211555 73 342 5.0 13.0 0.00 0.00 0.00 43 1017.3
20260506210054 73 360 4.0 11.0 0.00 0.00 0.00 42 1017.3
20260506204558 73 330 4.0 11.0 0.00 0.00 0.00 43 1017.4
20260506203052 73 350 7.0 11.0 0.00 0.00 0.00 43 1017.3
20260506201556 73 350 5.0 14.0 0.00 0.00 0.00 42 1017.3
20260506200109 73 57 6.0 12.0 0.00 0.00 0.00 41 1017.5
20260506194611 72 13 2.0 11.0 0.00 0.00 0.00 41 1017.5
20260506193052 72 330 4.0 14.0 0.00 0.00 0.00 46 1017.8
20260506191556 70 226 2.0 11.0 0.00 0.00 0.00 48 1018.1
20260506190052 70 339 3.0 8.0 0.00 0.00 0.00 44 1018.1